• En España
  • Lista de países
  • Para 7 días
  • Temperatura del agua
  • Mapa Satelital
  • El tiempo en el mapa
  • Informadores
  • user-avatar
    Iniciar sesión

    Tiempo cada hora Osiyaly

    Hoy, 21 Agosto, Martes

    Tiempo Temperatura Precipitaciones Viento Presión Humedad
    00:00 +17°C° 0,1 mm 2 mps 747 mmHg 95%
    01:00 +17°C° 0,1 mm 2 mps 746 mmHg 95%
    02:00 +16°C° 0,1 mm 2 mps 746 mmHg 95%
    03:00 +17°C° 0 mm 2 mps 746 mmHg 96%
    04:00 +17°C° 0,2 mm 2 mps 746 mmHg 96%
    05:00 +17°C° 0,2 mm 2 mps 746 mmHg 96%
    06:00 +17°C° 0,2 mm 2 mps 746 mmHg 95%
    07:00 +18°C° 0,2 mm 2 mps 746 mmHg 91%
    08:00 +20°C° 0,2 mm 3 mps 746 mmHg 86%
    09:00 +21°C° 0 mm 3 mps 746 mmHg 81%
    10:00 +22°C° 0,3 mm 3 mps 746 mmHg 77%
    11:00 +24°C° 0,3 mm 3 mps 745 mmHg 72%
    12:00 +25°C° 0,3 mm 4 mps 745 mmHg 67%
    13:00 +25°C° 0,2 mm 4 mps 745 mmHg 64%
    14:00 +26°C° 0,2 mm 4 mps 744 mmHg 62%
    15:00 +27°C° 0,2 mm 5 mps 744 mmHg 59%
    16:00 +26°C° 0,1 mm 5 mps 743 mmHg 63%
    17:00 +25°C° 0,1 mm 4 mps 743 mmHg 68%
    18:00 +23°C° 0,1 mm 4 mps 742 mmHg 72%
    19:00 +22°C° 0 mm 4 mps 742 mmHg 73%
    20:00 +21°C° 0 mm 4 mps 742 mmHg 75%
    21:00 +20°C° 0 mm 4 mps 741 mmHg 77%
    22:00 +20°C° 0,1 mm 4 mps 741 mmHg 78%
    23:00 +19°C° 0,1 mm 4 mps 741 mmHg 79%

    Mañana, 22 Agosto, Miércoles

    Tiempo Temperatura Precipitaciones Viento Presión Humedad
    00:00 +19°C° 0,1 mm 4 mps 740 mmHg 80%
    01:00 +19°C° 0,5 mm 4 mps 740 mmHg 83%
    02:00 +18°C° 0,5 mm 4 mps 740 mmHg 86%
    03:00 +18°C° 0,5 mm 4 mps 740 mmHg 88%
    04:00 +17°C° 1,2 mm 4 mps 740 mmHg 90%
    05:00 +17°C° 1,2 mm 4 mps 740 mmHg 92%
    06:00 +15°C° 1,2 mm 4 mps 740 mmHg 94%
    07:00 +15°C° 0,2 mm 4 mps 741 mmHg 90%
    08:00 +15°C° 0,2 mm 4 mps 741 mmHg 86%
    09:00 +15°C° 0,2 mm 4 mps 741 mmHg 81%
    10:00 +17°C° 0 mm 4 mps 741 mmHg 74%
    11:00 +18°C° 0 mm 4 mps 742 mmHg 67%
    12:00 +19°C° 0 mm 5 mps 742 mmHg 60%
    13:00 +19°C° 0 mm 5 mps 742 mmHg 58%
    14:00 +19°C° 0 mm 5 mps 742 mmHg 56%
    15:00 +20°C° 0 mm 5 mps 742 mmHg 53%
    16:00 +19°C° 0,1 mm 5 mps 743 mmHg 60%
    17:00 +17°C° 0,1 mm 4 mps 743 mmHg 68%
    18:00 +15°C° 0,1 mm 4 mps 744 mmHg 75%
    19:00 +14°C° 0 mm 4 mps 744 mmHg 78%
    20:00 +12°C° 0 mm 4 mps 745 mmHg 81%
    21:00 +11°C° 0 mm 3 mps 745 mmHg 84%
    22:00 +11°C° 0 mm 3 mps 746 mmHg 86%
    23:00 +10°C° 0 mm 3 mps 746 mmHg 87%

    Pasado mañana, 23 Agosto, Jueves

    Tiempo Temperatura Precipitaciones Viento Presión Humedad
    00:00 +10°C° 0 mm 3 mps 746 mmHg 89%
    01:00 +9°C° 0 mm 3 mps 747 mmHg 91%
    02:00 +9°C° 0 mm 3 mps 747 mmHg 93%
    03:00 +9°C° 0 mm 3 mps 747 mmHg 95%
    04:00 +9°C° 0 mm 3 mps 748 mmHg 92%
    05:00 +8°C° 0 mm 4 mps 748 mmHg 90%
    06:00 +8°C° 0 mm 4 mps 749 mmHg 88%
    07:00 +9°C° 0 mm 5 mps 749 mmHg 79%
    08:00 +12°C° 0 mm 5 mps 749 mmHg 70%
    09:00 +13°C° 0 mm 6 mps 749 mmHg 61%
    10:00 +14°C° 0 mm 6 mps 750 mmHg 58%
    11:00 +15°C° 0 mm 6 mps 750 mmHg 55%
    12:00 +16°C° 0 mm 6 mps 750 mmHg 52%
    13:00 +16°C° 0 mm 6 mps 750 mmHg 52%
    14:00 +16°C° 0 mm 6 mps 750 mmHg 52%
    15:00 +16°C° 0 mm 6 mps 750 mmHg 52%
    16:00 +16°C° 0 mm 5 mps 750 mmHg 56%
    17:00 +15°C° 0 mm 4 mps 750 mmHg 61%
    18:00 +14°C° 0 mm 3 mps 750 mmHg 65%
    19:00 +13°C° 0 mm 3 mps 750 mmHg 68%
    20:00 +12°C° 0 mm 3 mps 751 mmHg 71%
    21:00 +11°C° 0 mm 3 mps 751 mmHg 74%
    22:00 +11°C° 0 mm 3 mps 751 mmHg 74%
    23:00 +11°C° 0 mm 3 mps 751 mmHg 74%

    24 Agosto, Viernes

    Tiempo Temperatura Precipitaciones Viento Presión Humedad
    00:00 +11°C° 0 mm 3 mps 751 mmHg 74%
    01:00 +11°C° 0 mm 3 mps 751 mmHg 75%
    02:00 +11°C° 0 mm 3 mps 751 mmHg 77%
    03:00 +11°C° 0 mm 3 mps 751 mmHg 78%
    04:00 +12°C° 0 mm 3 mps 751 mmHg 78%
    05:00 +12°C° 0 mm 4 mps 751 mmHg 78%
    06:00 +12°C° 0 mm 5 mps 751 mmHg 78%
    07:00 +13°C° 0,1 mm 5 mps 751 mmHg 76%
    08:00 +14°C° 0,1 mm 5 mps 750 mmHg 74%
    09:00 +15°C° 0,1 mm 5 mps 750 mmHg 72%
    10:00 +17°C° 0 mm 5 mps 750 mmHg 69%
    11:00 +19°C° 0 mm 5 mps 750 mmHg 66%
    12:00 +20°C° 0 mm 5 mps 750 mmHg 63%
    13:00 +20°C° 0,1 mm 5 mps 750 mmHg 66%
    14:00 +20°C° 0,1 mm 4 mps 750 mmHg 68%
    15:00 +20°C° 0,1 mm 3 mps 751 mmHg 70%
    16:00 +19°C° 0 mm 3 mps 751 mmHg 74%
    17:00 +19°C° 0 mm 2 mps 751 mmHg 77%
    18:00 +19°C° 0 mm 2 mps 751 mmHg 80%
    19:00 +18°C° 0 mm 1 mps 751 mmHg 83%
    20:00 +16°C° 0 mm 1 mps 751 mmHg 87%
    21:00 +15°C° 0 mm 1 mps 751 mmHg 90%
    22:00 +15°C° 0 mm 1 mps 752 mmHg 91%
    23:00 +14°C° 0 mm 1 mps 752 mmHg 92%

    25 Agosto, Sábado

    Tiempo Temperatura Precipitaciones Viento Presión Humedad
    00:00 +14°C° 0 mm 1 mps 752 mmHg 93%
    01:00 +13°C° 0 mm 0 mps 752 mmHg 94%
    02:00 +12°C° 0 mm 0 mps 752 mmHg 94%
    03:00 +12°C° 0 mm 0 mps 753 mmHg 95%
    04:00 +13°C° 0 mm 0 mps 753 mmHg 95%
    05:00 +14°C° 0 mm 1 mps 753 mmHg 94%
    06:00 +14°C° 0 mm 1 mps 753 mmHg 94%
    07:00 +16°C° 0 mm 1 mps 754 mmHg 88%
    08:00 +19°C° 0 mm 1 mps 754 mmHg 81%
    09:00 +21°C° 0 mm 1 mps 754 mmHg 75%
    10:00 +22°C° 0 mm 1 mps 754 mmHg 70%
    11:00 +23°C° 0 mm 1 mps 754 mmHg 65%
    12:00 +24°C° 0 mm 1 mps 754 mmHg 60%
    13:00 +24°C° 0 mm 1 mps 754 mmHg 59%
    14:00 +24°C° 0 mm 1 mps 754 mmHg 57%
    15:00 +22°C° 0 mm 0 mps 754 mmHg 56%
    16:00 +23°C° 0 mm 1 mps 754 mmHg 61%
    17:00 +22°C° 0 mm 1 mps 754 mmHg 66%
    18:00 +21°C° 0 mm 1 mps 754 mmHg 71%
    19:00 +20°C° 0 mm 1 mps 754 mmHg 76%
    20:00 +19°C° 0 mm 1 mps 754 mmHg 81%
    21:00 +16°C° 0 mm 1 mps 754 mmHg 86%
    22:00 +16°C° 0 mm 1 mps 755 mmHg 87%
    23:00 +15°C° 0 mm 2 mps 755 mmHg 89%

    26 Agosto, Domingo

    Tiempo Temperatura Precipitaciones Viento Presión Humedad
    00:00 +15°C° 0 mm 2 mps 755 mmHg 91%
    01:00 +15°C° 0 mm 2 mps 755 mmHg 92%
    02:00 +14°C° 0 mm 2 mps 755 mmHg 93%
    03:00 +14°C° 0 mm 2 mps 756 mmHg 94%
    04:00 +15°C° 0 mm 1 mps 756 mmHg 93%
    05:00 +15°C° 0 mm 1 mps 756 mmHg 92%
    06:00 +15°C° 0 mm 1 mps 756 mmHg 92%
    07:00 +18°C° 0 mm 1 mps 756 mmHg 85%
    08:00 +20°C° 0 mm 1 mps 756 mmHg 78%
    09:00 +22°C° 0 mm 1 mps 756 mmHg 72%
    10:00 +23°C° 0 mm 1 mps 756 mmHg 68%
    11:00 +25°C° 0 mm 1 mps 756 mmHg 64%
    12:00 +26°C° 0 mm 1 mps 756 mmHg 59%
    13:00 +26°C° 0 mm 1 mps 756 mmHg 59%
    14:00 +26°C° 0 mm 1 mps 755 mmHg 59%
    15:00 +26°C° 0 mm 1 mps 755 mmHg 58%
    16:00 +25°C° 0 mm 1 mps 755 mmHg 63%
    17:00 +24°C° 0 mm 1 mps 755 mmHg 67%
    18:00 +23°C° 0 mm 1 mps 755 mmHg 72%
    19:00 +22°C° 0 mm 1 mps 755 mmHg 76%
    20:00 +20°C° 0 mm 1 mps 755 mmHg 81%
    21:00 +19°C° 0 mm 1 mps 755 mmHg 85%
    22:00 +19°C° 0 mm 1 mps 755 mmHg 87%
    23:00 +18°C° 0 mm 1 mps 755 mmHg 89%
    Mostrar más